Dewpoint
9 8 6 5 5 5 5 4 4 3 3 3 3 3 3 2 2 2 1 1 0 -0 -1 -10 -22 -28 -29
8 7 6 6 5 4 4 4 3 2 2 2 2 2 2 2 1 1 0 -0 -1 -12 -25 -30 -32 -31 -24
8 7 6 5 4 4 3 3 2 2 2 2 1 1 1 0 -0 -1 -8 -20 -28 -31 -32 -31 -22 -17 -17
7 6 6 5 4 3 3 2 2 2 0 0 0 -1 -2 -9 -20 -27 -29 -31 -32 -30 -21 -17 -16 -17 -16
6 5 4 3 3 2 2 1 1 0 -1 -4 -11 -21 -25 -27 -29 -31 -31 -29 -23 -16 -16 -16 -16 -15 -16
4 4 3 3 2 2 1 1 -0 -3 -13 -22 -24 -28 -28 -28 -29 -25 -19 -16 -15 -16 -16 -15 -16 -16 -16
3 3 2 2 1 1 0 -1 -6 -17 -23 -24 -27 -27 -25 -24 -20 -15 -15 -16 -16 -15 -15 -16 -16 -16 -16
2 1 1 1 -0 -7 -18 -21 -23 -25 -26 -27 -28 -24 -20 -16 -15 -15 -15 -15 -16 -16 -16 -16 -15 -14 -14
1 -0 -3 -13 -23 -27 -28 -27 -27 -27 -26 -25 -24 -19 -15 -15 -15 -15 -15 -15 -15 -15 -15 -14 -14 -15 -15
-9 -20 -29 -31 -31 -30 -30 -30 -29 -29 -26 -22 -20 -16 -15 -15 -14 -14 -14 -15 -15 -14 -14 -14 -14 -14 -12
-29 -29 -29 -29 -29 -29 -29 -29 -29 -30 -23 -20 -16 -15 -15 -14 -14 -14 -14 -14 -13 -13 -12 -12 -11 -11 -11
-27 -28 -28 -28 -28 -28 -28 -28 -27 -28 -25 -20 -16 -15 -14 -14 -13 -14 -13 -12 -12 -12 -12 -12 -11 -11 -11
-27 -28 -29 -28 -28 -29 -28 -27 -25 -23 -20 -17 -15 -15 -14 -14 -14 -14 -13 -13 -13 -13 -12 -12 -13 -14 -15
-26 -28 -28 -28 -28 -28 -29 -27 -24 -21 -18 -16 -15 -15 -15 -15 -15 -16 -15 -15 -15 -15 -17 -19 -20 -19 -17
-27 -28 -27 -27 -28 -28 -27 -27 -26 -23 -20 -18 -18 -18 -18 -19 -20 -20 -20 -20 -20 -20 -19 -18 -17 -16 -15
-27 -28 -27 -27 -27 -27 -27 -27 -26 -25 -25 -25 -25 -24 -23 -22 -21 -20 -20 -19 -19 -18 -17 -16 -14 -13 -12
-27 -27 -26 -26 -25 -25 -25 -25 -24 -24 -24 -24 -23 -23 -22 -21 -19 -19 -18 -17 -16 -15 -15 -13 -12 -12 -12
Wind_Speed
31 19 19 19 17 19 16 16 15 15 16 17 18 18 19 17 17 17 18 16 16 17 17 15 15 15 15
25 22 21 20 19 16 15 15 16 16 17 18 16 15 14 14 15 16 16 17 16 15 15 14 14 13 9
30 25 21 21 18 16 17 17 16 16 15 13 13 13 14 16 15 15 15 15 15 15 13 11 6 5 6
25 20 20 18 18 17 16 14 15 15 14 14 14 14 16 16 15 15 14 14 12 10 6 5 6 6 7
21 21 20 19 18 16 15 15 15 17 15 15 14 15 16 14 13 12 11 10 7 6 7 7 8 8 10
21 22 22 18 18 17 16 17 17 17 16 14 12 12 12 11 9 8 7 6 7 8 8 9 10 11 12
22 22 21 18 16 16 16 16 18 16 13 13 12 11 9 8 8 8 8 9 9 10 11 12 12 11 10
20 18 17 16 15 15 15 16 17 16 14 12 11 10 8 8 8 8 9 9 10 11 12 12 10 10 13
17 17 17 16 16 15 15 16 16 14 11 10 9 9 9 10 10 10 10 10 10 10 12 12 12 16 18
17 18 18 17 16 15 14 13 14 12 12 10 9 9 6 11 10 9 8 8 10 12 13 15 19 20 20
17 16 15 13 12 11 11 11 12 12 6 10 9 9 9 6 7 9 10 12 12 12 14 16 19 21 22
16 14 13 12 10 9 9 10 10 10 10 11 11 11 12 11 11 12 11 12 13 14 16 18 19 18 20
14 12 11 11 10 9 10 10 10 11 11 12 12 13 13 13 14 13 13 11 15 15 14 17 20 20 18
13 12 11 10 8 9 8 9 11 12 12 12 12 13 13 14 15 13 13 11 11 16 19 17 18 17 18
12 10 9 9 9 8 8 9 9 9 10 11 11 12 13 14 15 12 13 12 12 15 17 18 17 17 19
12 10 10 10 10 9 9 8 7 7 8 9 10 11 13 12 12 9 10 11 12 14 16 21 20 17 19
13 11 11 11 12 10 9 10 8 8 8 9 10 10 13 16 13 11 10 10 13 15 16 19 24 20 21
Wind_Direction
256 246 255 266 274 287 272 267 262 267 264 261 259 259 258 259 262 267 269 275 280 281 281 279 278 278 282
256 249 253 261 274 276 266 262 263 262 264 259 255 256 251 255 259 264 269 274 276 275 276 278 278 281 280
243 246 253 261 264 257 257 258 255 257 257 253 249 248 256 262 264 265 266 268 271 275 278 279 267 263 272
243 247 254 256 256 252 250 253 249 251 250 254 255 259 261 262 264 266 266 268 272 270 249 245 257 268 277
248 253 253 255 254 248 239 241 243 248 251 255 258 261 261 263 263 263 263 256 239 234 242 252 263 274 279
254 256 257 248 240 236 234 236 242 252 258 262 261 259 260 257 251 240 221 220 233 240 249 264 275 279 280
262 260 250 242 235 233 238 242 249 253 257 261 265 256 254 236 210 210 226 236 243 254 266 270 270 270 274
249 243 239 233 231 234 238 242 249 251 253 258 254 240 222 211 214 230 241 251 258 264 264 256 253 270 284
235 236 236 238 240 241 240 242 246 250 247 244 231 215 218 229 236 237 249 259 262 260 250 252 264 279 287
236 241 244 246 245 240 239 237 238 243 236 224 205 205 235 240 241 248 249 249 256 261 262 264 273 281 284
242 241 242 240 232 227 228 232 234 231 226 209 207 209 225 239 247 256 262 265 266 266 268 271 275 280 285
240 236 235 235 231 227 228 232 232 226 221 228 233 239 246 253 256 263 259 264 270 272 271 274 276 278 287
240 236 231 229 226 225 228 232 235 233 233 235 243 250 258 265 267 265 268 265 269 270 261 273 283 285 285
238 234 230 230 225 229 232 237 241 243 247 251 254 258 262 268 272 279 282 277 277 282 283 291 295 296 297
241 237 234 234 234 232 232 243 250 252 256 262 266 269 273 276 281 285 280 280 282 281 287 290 292 299 300
245 241 237 237 239 242 245 251 255 253 255 259 265 274 281 286 285 281 278 286 280 282 291 296 299 302 300
248 247 243 240 244 246 247 250 253 255 259 264 268 274 281 287 286 285 286 290 288 289 295 298 300 308 304
Height
1538 1537 1538 1538 1539 1539 1539 1539 1540 1541 1543 1543 1543 1543 1543 1542 1542 1542 1542 1542 1542 1543 1542 1543 1543 1543 1543
1533 1532 1532 1533 1534 1533 1535 1536 1537 1537 1538 1539 1538 1538 1537 1538 1538 1538 1538 1538 1538 1539 1538 1539 1539 1539 1539
1526 1526 1526 1528 1528 1527 1531 1531 1532 1533 1534 1533 1534 1533 1533 1534 1534 1534 1534 1534 1534 1534 1534 1534 1535 1536 1537
1519 1519 1521 1522 1523 1524 1525 1525 1529 1531 1530 1530 1529 1528 1529 1530 1530 1530 1530 1530 1530 1530 1530 1532 1533 1534 1534
1514 1515 1516 1516 1518 1519 1520 1521 1524 1527 1526 1525 1525 1524 1525 1525 1525 1525 1526 1526 1527 1528 1529 1530 1530 1531 1531
1511 1511 1511 1511 1514 1514 1516 1517 1521 1523 1521 1520 1520 1520 1520 1521 1521 1522 1523 1524 1525 1526 1526 1527 1527 1527 1527
1505 1507 1509 1508 1509 1511 1512 1513 1516 1518 1517 1515 1515 1516 1516 1517 1518 1519 1520 1522 1523 1523 1524 1524 1524 1524 1525
1500 1503 1505 1505 1506 1507 1508 1509 1511 1512 1512 1511 1512 1512 1513 1514 1515 1516 1518 1519 1519 1520 1520 1520 1521 1522 1521
1496 1500 1501 1501 1502 1502 1503 1504 1506 1507 1507 1507 1508 1509 1510 1511 1512 1514 1515 1515 1516 1516 1516 1517 1518 1517 1516
1494 1496 1497 1497 1497 1497 1498 1499 1501 1503 1503 1504 1505 1507 1508 1508 1509 1510 1511 1511 1512 1512 1513 1513 1512 1511 1511
1492 1492 1493 1493 1493 1493 1494 1495 1497 1499 1499 1501 1502 1503 1505 1506 1506 1507 1508 1508 1508 1508 1508 1507 1506 1505 1504
1490 1489 1489 1489 1490 1489 1491 1492 1494 1496 1497 1498 1499 1501 1502 1503 1503 1503 1504 1503 1504 1504 1502 1501 1500 1499 1498
1486 1486 1486 1486 1486 1486 1488 1489 1491 1492 1493 1495 1496 1497 1498 1498 1498 1499 1499 1499 1498 1497 1496 1495 1495 1493 1493
1483 1483 1483 1483 1484 1484 1485 1487 1488 1489 1490 1491 1492 1493 1493 1492 1492 1493 1493 1493 1493 1491 1489 1489 1488 1487 1485
1479 1479 1479 1480 1481 1482 1483 1484 1485 1485 1486 1487 1487 1487 1487 1487 1487 1488 1487 1487 1486 1485 1484 1483 1483 1481 1479
1476 1476 1477 1477 1478 1479 1480 1480 1481 1482 1482 1483 1483 1483 1483 1483 1482 1482 1482 1482 1481 1480 1478 1476 1475 1475 1473
1472 1473 1473 1474 1475 1476 1476 1477 1478 1478 1479 1479 1479 1479 1479 1478 1479 1478 1477 1477 1475 1474 1473 1471 1468 1468 1466